| time (UTC) | temp F | wind direction | speed MPH | gust MPH | rain 1hr in | rain 24hr in | rain mn in | humidity % | barometer mb |
| 20260901204605 | 98 | 210 | 5.0 | 11.0 | 0.00 | 0.00 | 0.00 | 22 | 1014.9 |
| 20260901203106 | 97 | 184 | 7.0 | 15.0 | 0.00 | 0.00 | 0.00 | 23 | 1015.2 |
| 20260901201601 | 97 | 194 | 5.0 | 14.0 | 0.00 | 0.00 | 0.00 | 23 | 1015.6 |
| 20260901200109 | 96 | 162 | 7.0 | 18.0 | 0.00 | 0.00 | 0.00 | 23 | 1015.7 |
| 20260901194605 | 95 | 179 | 9.0 | 19.0 | 0.00 | 0.00 | 0.00 | 23 | 1016.0 |
| 20260901193125 | 95 | 203 | 8.0 | 18.0 | 0.00 | 0.00 | 0.00 | 23 | 1015.9 |
| 20260901191612 | 95 | 189 | 8.0 | 17.0 | 0.00 | 0.00 | 0.00 | 24 | 1015.9 |
| 20260901190127 | 94 | 191 | 8.0 | 17.0 | 0.00 | 0.00 | 0.00 | 25 | 1016.2 |
| 20260901184612 | 94 | 206 | 5.0 | 15.0 | 0.00 | 0.00 | 0.00 | 26 | 1016.3 |
| 20260901183107 | 94 | 215 | 8.0 | 17.0 | 0.00 | 0.00 | 0.00 | 25 | 1016.6 |
| 20260901181600 | 94 | 208 | 6.0 | 14.0 | 0.00 | 0.00 | 0.00 | 26 | 1016.8 |
| 20260901180106 | 93 | 185 | 5.0 | 12.0 | 0.00 | 0.00 | 0.00 | 27 | 1017.1 |
| 20260901174607 | 92 | 164 | 6.0 | 13.0 | 0.00 | 0.00 | 0.00 | 28 | 1017.4 |
| 20260901173103 | 91 | 257 | 7.0 | 14.0 | 0.00 | 0.00 | 0.00 | 30 | 1017.4 |
| 20260901171609 | 90 | 176 | 7.0 | 14.0 | 0.00 | 0.00 | 0.00 | 32 | 1017.6 |
| 20260901170200 | 89 | 253 | 5.0 | 11.0 | 0.00 | 0.00 | 0.00 | 34 | 1017.6 |
| 20260901164604 | 88 | 217 | 7.0 | 14.0 | 0.00 | 0.00 | 0.00 | 35 | 1017.8 |
| 20260901163110 | 88 | 208 | 7.0 | 12.0 | 0.00 | 0.00 | 0.00 | 35 | 1017.7 |
| 20260901161615 | 86 | 230 | 5.0 | 13.0 | 0.00 | 0.00 | 0.00 | 39 | 1017.8 |
| 20260901154613 | 83 | 168 | 6.0 | 11.0 | 0.00 | 0.00 | 0.00 | 42 | 1017.8 |
| 20260901153125 | 82 | 191 | 6.0 | 12.0 | 0.00 | 0.00 | 0.00 | 46 | 1017.7 |
| 20260901151602 | 80 | 231 | 6.0 | 12.0 | 0.00 | 0.00 | 0.00 | 49 | 1017.6 |
| 20260901150104 | 78 | 211 | 4.0 | 11.0 | 0.00 | 0.00 | 0.00 | 53 | 1017.6 |
| 20260901144606 | 76 | 144 | 6.0 | 11.0 | 0.00 | 0.00 | 0.00 | 56 | 1017.6 |
| 20260901143105 | 75 | 195 | 4.0 | 9.0 | 0.00 | 0.00 | 0.00 | 58 | 1017.7 |
| 20260901141603 | 74 | 187 | 2.0 | 7.0 | 0.00 | 0.00 | 0.00 | 63 | 1017.6 |
| 20260901134604 | 70 | 191 | 4.0 | 8.0 | 0.00 | 0.00 | 0.00 | 67 | 1017.5 |
| 20260901133103 | 69 | 205 | 2.0 | 6.0 | 0.00 | 0.00 | 0.00 | 70 | 1017.5 |
| 20260901131625 | 69 | 169 | 1.0 | 5.0 | 0.00 | 0.00 | 0.00 | 71 | 1017.5 |
| 20260901130105 | 68 | 187 | 2.0 | 6.0 | 0.00 | 0.00 | 0.00 | 71 | 1017.3 |
| 20260901124604 | 68 | 172 | 1.0 | 4.0 | 0.00 | 0.00 | 0.00 | 74 | 1017.4 |
| 20260901123105 | 67 | 155 | 1.0 | 3.0 | 0.00 | 0.00 | 0.00 | 75 | 1017.2 |
| 20260901121600 | 67 | 226 | 2.0 | 5.0 | 0.00 | 0.00 | 0.00 | 76 | 1017.1 |
| 20260901114605 | 68 | 0 | 0.0 | 1.0 | 0.00 | 0.00 | 0.00 | 77 | 1017.0 |
| 20260901113110 | 68 | 0 | 0.0 | 1.0 | 0.00 | 0.00 | 0.00 | 77 | 1017.1 |
| 20260901111609 | 68 | 0 | 0.0 | 1.0 | 0.00 | 0.00 | 0.00 | 77 | 1017.1 |
| 20260901110118 | 69 | 0 | 0.0 | 1.0 | 0.00 | 0.00 | 0.00 | 76 | 1017.1 |
| 20260901104605 | 69 | 0 | 0.0 | 1.0 | 0.00 | 0.00 | 0.00 | 75 | 1017.1 |
| 20260901103104 | 69 | 0 | 0.0 | 1.0 | 0.00 | 0.00 | 0.00 | 74 | 1017.1 |
| 20260901101608 | 70 | 57 | 0.0 | 1.0 | 0.00 | 0.00 | 0.00 | 73 | 1017.2 |
| 20260901100112 | 70 | 0 | 0.0 | 2.0 | 0.00 | 0.00 | 0.00 | 72 | 1017.4 |
| 20260901094607 | 70 | 0 | 0.0 | 1.0 | 0.00 | 0.00 | 0.00 | 72 | 1017.5 |
| 20260901093105 | 71 | 0 | 0.0 | 2.0 | 0.00 | 0.00 | 0.00 | 71 | 1017.7 |
| 20260901091604 | 71 | 57 | 2.0 | 5.0 | 0.00 | 0.00 | 0.00 | 72 | 1017.6 |
| 20260901090105 | 71 | 0 | 0.0 | 2.0 | 0.00 | 0.00 | 0.00 | 72 | 1017.5 |
| 20260901084613 | 72 | 0 | 0.0 | 1.0 | 0.00 | 0.01 | 0.00 | 71 | 1017.4 |
| 20260901083107 | 72 | 0 | 0.0 | 1.0 | 0.00 | 0.01 | 0.00 | 70 | 1017.1 |
| 20260901081618 | 72 | 0 | 0.0 | 2.0 | 0.00 | 0.01 | 0.00 | 69 | 1017.1 |
| 20260901080101 | 73 | 0 | 0.0 | 3.0 | 0.00 | 0.01 | 0.00 | 68 | 1017.1 |
| 20260901074603 | 73 | 186 | 1.0 | 3.0 | 0.00 | 0.01 | 0.00 | 68 | 1017.1 |
| 20260901073104 | 73 | 0 | 1.0 | 3.0 | 0.00 | 0.01 | 0.00 | 69 | 1017.1 |
| 20260901071608 | 73 | 184 | 1.0 | 3.0 | 0.00 | 0.01 | 0.00 | 69 | 1017.1 |
| 20260901070108 | 74 | 176 | 0.0 | 3.0 | 0.00 | 0.01 | 0.00 | 67 | 1016.8 |
| 20260901064605 | 75 | 0 | 1.0 | 4.0 | 0.00 | 0.01 | 0.00 | 63 | 1016.8 |
| 20260901063103 | 76 | 0 | 1.0 | 3.0 | 0.00 | 0.01 | 0.00 | 60 | 1016.4 |
| 20260901061614 | 77 | 190 | 0.0 | 3.0 | 0.00 | 0.01 | 0.00 | 57 | 1016.4 |
| 20260901060106 | 78 | 190 | 0.0 | 4.0 | 0.00 | 0.01 | 0.00 | 54 | 1016.2 |
| 20260901054617 | 79 | 91 | 0.0 | 2.0 | 0.00 | 0.01 | 0.00 | 56 | 1016.1 |
| 20260901053126 | 80 | 0 | 1.0 | 3.0 | 0.00 | 0.01 | 0.00 | 58 | 1016.1 |
| 20260901051605 | 80 | 352 | 0.0 | 4.0 | 0.00 | 0.01 | 0.00 | 56 | 1016.2 |
| 20260901050105 | 82 | 331 | 1.0 | 5.0 | 0.00 | 0.01 | 0.00 | 54 | 1016.4 |
| 20260901044603 | 83 | 0 | 0.0 | 2.0 | 0.00 | 0.01 | 0.01 | 51 | 1016.3 |
| 20260901043107 | 84 | 72 | 0.0 | 3.0 | 0.00 | 0.01 | 0.01 | 48 | 1016.4 |
| 20260901041611 | 85 | 68 | 1.0 | 7.0 | 0.00 | 0.01 | 0.01 | 47 | 1016.5 |
| 20260901040138 | 85 | 183 | 4.0 | 8.0 | 0.00 | 0.01 | 0.01 | 39 | 1016.3 |
| 20260901034605 | 83 | 195 | 3.0 | 9.0 | 0.00 | 0.01 | 0.01 | 40 | 1016.3 |
| 20260901033121 | 83 | 77 | 0.0 | 3.0 | 0.00 | 0.01 | 0.01 | 49 | 1016.2 |
| 20260901031613 | 83 | 70 | 0.0 | 6.0 | 0.00 | 0.01 | 0.01 | 49 | 1016.2 |
| 20260901030105 | 84 | 70 | 2.0 | 5.0 | 0.00 | 0.01 | 0.01 | 52 | 1015.9 |
| 20260901024605 | 86 | 32 | 0.0 | 4.0 | 0.00 | 0.01 | 0.01 | 47 | 1015.4 |
| 20260901023106 | 87 | 0 | 0.0 | 1.0 | 0.00 | 0.01 | 0.01 | 44 | 1015.0 |
| 20260901021605 | 88 | 215 | 0.0 | 1.0 | 0.00 | 0.01 | 0.01 | 43 | 1014.6 |
| 20260901020104 | 88 | 0 | 0.0 | 1.0 | 0.00 | 0.01 | 0.01 | 42 | 1014.1 |
| 20260901014605 | 89 | 0 | 0.0 | 1.0 | 0.00 | 0.01 | 0.01 | 38 | 1013.8 |
| 20260901013109 | 91 | 0 | 0.0 | 1.0 | 0.00 | 0.01 | 0.01 | 37 | 1013.9 |
| 20260901011608 | 92 | 0 | 0.0 | 1.0 | 0.00 | 0.01 | 0.01 | 34 | 1013.9 |
| 20260901010105 | 93 | 0 | 0.0 | 1.0 | 0.00 | 0.01 | 0.01 | 33 | 1013.8 |
| 20260901004607 | 94 | 0 | 0.0 | 4.0 | 0.00 | 0.01 | 0.01 | 29 | 1013.6 |
| 20260901003106 | 95 | 215 | 1.0 | 7.0 | 0.00 | 0.01 | 0.01 | 28 | 1013.7 |
| 20260901001608 | 96 | 201 | 3.0 | 7.0 | 0.00 | 0.01 | 0.01 | 27 | 1013.6 |
| 20260901000107 | 97 | 178 | 3.0 | 10.0 | 0.00 | 0.01 | 0.01 | 26 | 1013.6 |
| 20260831234606 | 98 | 197 | 4.0 | 8.0 | 0.00 | 0.01 | 0.01 | 26 | 1013.6 |
| 20260831233103 | 98 | 193 | 5.0 | 9.0 | 0.00 | 0.01 | 0.01 | 26 | 1013.6 |
| 20260831231610 | 98 | 202 | 3.0 | 9.0 | 0.00 | 0.01 | 0.01 | 26 | 1013.6 |
| 20260831230141 | 99 | 164 | 4.0 | 11.0 | 0.00 | 0.01 | 0.01 | 26 | 1013.8 |
| 20260831224621 | 99 | 210 | 3.0 | 7.0 | 0.00 | 0.01 | 0.01 | 27 | 1013.9 |
| 20260831223111 | 99 | 196 | 3.0 | 10.0 | 0.00 | 0.01 | 0.01 | 27 | 1014.0 |
| 20260831221628 | 99 | 224 | 1.0 | 10.0 | 0.00 | 0.01 | 0.01 | 27 | 1014.1 |
| 20260831220104 | 99 | 183 | 2.0 | 8.0 | 0.00 | 0.01 | 0.01 | 27 | 1014.3 |
| 20260831214612 | 99 | 124 | 2.0 | 4.0 | 0.00 | 0.01 | 0.01 | 27 | 1014.5 |
| 20260831213112 | 98 | 0 | 3.0 | 7.0 | 0.00 | 0.01 | 0.01 | 28 | 1014.7 |
| 20260831211615 | 98 | 131 | 0.0 | 4.0 | 0.00 | 0.01 | 0.01 | 30 | 1015.0 |